EST,Max TemperatureF,Mean TemperatureF,Min TemperatureF,Max Dew PointF,MeanDew PointF,Min DewpointF,Max Humidity, Mean Humidity, Min Humidity, Max Sea Level PressureIn, Mean Sea Level PressureIn, Min Sea Level PressureIn, Max VisibilityMiles, Mean VisibilityMiles, Min VisibilityMiles, Max Wind SpeedMPH, Mean Wind SpeedMPH, Max Gust SpeedMPH,PrecipitationIn, CloudCover, Events, WindDirDegrees
2013-2-1,68,61,54,47,39,31,69,49,25,30.36,30.28,30.23,10,10,10,16,9,25,0.00,0,,17
2013-2-2,70,62,55,49,45,39,72,57,33,30.31,30.23,30.16,10,10,10,15,10,,0.00,0,,30
2013-2-3,69,62,54,54,50,44,83,67,52,30.21,30.15,30.10,10,10,10,14,6,20,0.00,0,,350
2013-2-4,69,63,57,52,46,36,78,58,30,30.14,30.10,30.05,10,10,10,8,5,,0.00,0,,356
2013-2-5,73,65,57,61,50,42,87,59,43,30.10,30.04,30.01,10,10,10,10,6,,0.00,1,,132
2013-2-6,78,71,64,63,59,56,87,71,48,30.11,30.06,30.02,10,10,10,10,5,,0.00,5,,142
2013-2-7,78,71,64,67,64,60,93,81,54,30.06,29.98,29.86,10,9,6,33,10,44,0.10,2,Rain-Thunderstorm,196
2013-2-8,75,68,62,66,61,57,93,80,53,30.09,29.99,29.90,10,10,10,15,10,21,0.00,2,,336
2013-2-9,75,68,60,62,56,53,93,72,48,30.20,30.14,30.07,10,10,10,21,9,,0.00,0,,59
2013-2-10,78,71,64,63,60,58,84,73,54,30.24,30.18,30.13,10,10,10,17,13,,0.00,4,,136
2013-2-11,79,72,64,66,63,61,90,80,60,30.20,30.14,30.08,10,10,10,16,10,25,0.00,1,,195
2013-2-12,79,72,66,70,67,65,97,90,72,30.10,30.03,29.95,10,8,4,20,8,25,0.00,5,,197
2013-2-13,77,70,63,71,68,55,100,90,68,29.99,29.92,29.86,10,8,2,18,12,32,0.07,7,Rain,232
2013-2-14,66,64,61,61,59,55,97,87,68,30.04,30.00,29.94,10,8,2,16,6,18,0.66,8,Rain,23
2013-2-15,66,62,57,60,56,51,100,88,63,30.08,30.01,29.97,10,8,4,13,6,,0.04,7,Rain,25
2013-2-16,66,62,55,53,46,37,78,61,47,30.13,30.01,29.95,10,10,10,22,11,31,0.01,3,,345
2013-2-17,54,50,46,37,30,21,61,46,29,30.34,30.27,30.15,10,10,10,18,14,31,0.00,0,,14
2013-2-18,69,58,48,51,41,32,72,55,42,30.37,30.29,30.20,10,9,2,17,12,,0.00,0,,104
2013-2-19,73,66,59,62,56,50,87,72,55,30.21,30.14,30.09,10,10,10,15,11,,0.00,0,,192
2013-2-20,73,68,63,64,62,56,100,87,62,30.13,30.08,30.02,10,8,4,12,5,,0.00,4,,27
2013-2-21,78,70,63,66,62,58,90,80,60,30.11,30.05,29.99,10,10,9,12,7,,0.00,2,,104
2013-2-22,79,72,64,68,66,62,97,84,64,30.07,30.02,29.99,10,10,8,15,6,22,0.00,0,,199
2013-2-23,78,72,66,71,69,66,100,94,79,30.00,29.95,29.91,10,7,0,16,9,23,0.00,6,Fog,214
2013-2-24,78,73,68,70,68,68,100,92,71,29.96,29.93,29.88,10,5,0,14,7,,0.00,4,Fog,222
2013-2-25,81,74,68,71,68,66,97,89,69,29.90,29.85,29.78,10,6,0,14,7,,0.00,6,Fog,166
2013-2-26,75,72,68,72,66,61,93,84,68,29.89,29.81,29.70,10,8,1,20,11,31,0.00,5,Rain-Thunderstorm,247
2013-2-27,70,66,61,61,56,52,81,70,55,29.98,29.94,29.88,10,10,10,10,6,,0.00,4,,323
2013-2-28,70,66,61,53,52,49,75,63,51,30.01,29.97,29.93,10,10,10,15,6,22,0.00,1,,314